Time,TemperatureF,DewpointF,PressureIn,WindDirection,WindDirectionDegrees,WindSpeedMPH,WindSpeedGustMPH,Humidity,HourlyPrecipIn,Conditions,Clouds,dailyrainin,SoftwareType,DateUTC
2013-01-16 00:02:00,13.0,9.5,30.13,SW,217,0.0,0.0,86,0.00,,---,0.00,VWS V14.01,2013-01-16 06:02:00,
2013-01-16 00:07:00,13.0,9.5,30.13,SW,217,0.0,0.0,86,0.00,,---,0.00,VWS V14.01,2013-01-16 06:07:00,
2013-01-16 00:12:00,13.0,9.5,30.12,SW,216,0.0,0.0,86,0.00,,---,0.00,VWS V14.01,2013-01-16 06:12:00,
2013-01-16 00:17:00,12.9,9.4,30.12,SW,216,0.0,0.0,86,0.00,,---,0.00,VWS V14.01,2013-01-16 06:17:00,
2013-01-16 00:22:00,12.8,9.3,30.11,SW,217,0.0,0.0,86,0.00,,---,0.00,VWS V14.01,2013-01-16 06:22:00,
2013-01-16 00:27:00,12.8,9.3,30.12,SW,217,0.0,0.0,86,0.00,,---,0.00,VWS V14.01,2013-01-16 06:27:00,
2013-01-16 00:32:00,12.8,9.3,30.11,SW,216,0.0,0.0,86,0.00,,---,0.00,VWS V14.01,2013-01-16 06:32:00,
2013-01-16 00:37:00,12.9,9.4,30.11,SW,216,0.0,0.0,86,0.00,,---,0.00,VWS V14.01,2013-01-16 06:37:00,
2013-01-16 00:42:00,13.0,9.5,30.11,SW,216,0.0,0.0,86,0.00,,---,0.00,VWS V14.01,2013-01-16 06:42:00,
2013-01-16 00:47:00,13.3,9.8,30.11,SW,217,0.0,0.0,86,0.00,,---,0.00,VWS V14.01,2013-01-16 06:47:00,
2013-01-16 00:52:00,13.4,9.6,30.10,SW,216,0.0,0.0,85,0.00,,---,0.00,VWS V14.01,2013-01-16 06:52:00,
2013-01-16 00:57:00,13.4,9.4,30.10,SW,217,0.0,0.0,84,0.00,,---,0.00,VWS V14.01,2013-01-16 06:57:00,
2013-01-16 01:02:00,13.2,9.2,30.10,SW,217,0.0,0.0,84,0.00,,---,0.00,VWS V14.01,2013-01-16 07:02:00,
2013-01-16 01:07:00,13.0,9.0,30.10,SW,217,0.0,0.0,84,0.00,,---,0.00,VWS V14.01,2013-01-16 07:07:00,
2013-01-16 01:12:00,12.9,8.9,30.09,SW,216,0.0,0.0,84,0.00,,---,0.00,VWS V14.01,2013-01-16 07:12:00,
2013-01-16 01:17:00,12.7,8.7,30.09,SW,217,0.0,0.0,84,0.00,,---,0.00,VWS V14.01,2013-01-16 07:17:00,
2013-01-16 01:22:00,12.9,9.1,30.09,SW,217,0.0,0.0,85,0.00,,---,0.00,VWS V14.01,2013-01-16 07:22:00,
2013-01-16 01:27:00,13.1,9.4,30.09,SW,217,0.0,0.0,85,0.00,,---,0.00,VWS V14.01,2013-01-16 07:27:00,
2013-01-16 01:32:00,13.3,9.6,30.09,SW,217,0.0,0.0,85,0.00,,---,0.00,VWS V14.01,2013-01-16 07:32:00,
2013-01-16 01:37:00,13.4,9.4,30.09,SW,217,0.0,0.0,84,0.00,,---,0.00,VWS V14.01,2013-01-16 07:37:00,
2013-01-16 01:42:00,13.4,9.4,30.09,SW,216,0.0,0.0,84,0.00,,---,0.00,VWS V14.01,2013-01-16 07:42:00,
2013-01-16 01:47:00,13.7,9.7,30.09,SW,217,0.0,0.0,84,0.00,,---,0.00,VWS V14.01,2013-01-16 07:47:00,
2013-01-16 01:52:00,13.9,9.6,30.09,SW,217,0.0,0.0,83,0.00,,---,0.00,VWS V14.01,2013-01-16 07:52:00,
2013-01-16 01:57:00,13.9,9.4,30.09,SSW,210,0.0,0.0,82,0.00,,---,0.00,VWS V14.01,2013-01-16 07:57:00,
2013-01-16 02:02:00,13.9,9.1,30.09,SSW,210,0.0,0.0,81,0.00,,---,0.00,VWS V14.01,2013-01-16 08:02:00,
2013-01-16 02:07:00,13.8,9.0,30.09,SW,217,0.0,1.8,81,0.00,,---,0.00,VWS V14.01,2013-01-16 08:07:00,
2013-01-16 02:12:00,13.8,8.8,30.10,SW,217,0.0,1.8,80,0.00,,---,0.00,VWS V14.01,2013-01-16 08:12:00,
2013-01-16 02:17:00,13.8,8.8,30.09,SSW,212,1.8,3.6,80,0.00,,---,0.00,VWS V14.01,2013-01-16 08:17:00,
2013-01-16 02:22:00,14.0,9.0,30.09,SSW,203,1.8,3.6,80,0.00,,---,0.00,VWS V14.01,2013-01-16 08:22:00,
2013-01-16 02:27:00,14.3,9.3,30.09,SSW,210,3.6,7.2,80,0.00,,---,0.00,VWS V14.01,2013-01-16 08:27:00,
2013-01-16 02:32:00,14.7,9.7,30.09,SSE,159,1.8,3.6,80,0.00,,---,0.00,VWS V14.01,2013-01-16 08:32:00,
2013-01-16 02:37:00,14.9,9.6,30.09,SW,225,1.8,1.8,79,0.00,,---,0.00,VWS V14.01,2013-01-16 08:37:00,
2013-01-16 02:42:00,15.1,9.5,30.09,SSW,210,0.0,1.8,78,0.00,,---,0.00,VWS V14.01,2013-01-16 08:42:00,
2013-01-16 02:47:00,15.1,9.5,30.08,SSW,201,0.0,1.8,78,0.00,,---,0.00,VWS V14.01,2013-01-16 08:47:00,
2013-01-16 02:52:00,15.0,9.4,30.08,SW,214,0.0,1.8,78,0.00,,---,0.00,VWS V14.01,2013-01-16 08:52:00,
2013-01-16 02:57:00,15.0,9.4,30.08,South,183,1.8,1.8,78,0.00,,---,0.00,VWS V14.01,2013-01-16 08:57:00,
2013-01-16 03:02:00,14.9,9.3,30.08,SSW,198,1.8,1.8,78,0.00,,---,0.00,VWS V14.01,2013-01-16 09:02:00,
2013-01-16 03:07:00,14.8,9.2,30.07,SSW,212,3.6,3.6,78,0.00,,---,0.00,VWS V14.01,2013-01-16 09:07:00,
2013-01-16 03:12:00,15.0,9.2,30.07,SSW,200,0.0,1.8,77,0.00,,---,0.00,VWS V14.01,2013-01-16 09:12:00,
2013-01-16 03:17:00,15.0,9.2,30.07,SSW,197,3.6,3.6,77,0.00,,---,0.00,VWS V14.01,2013-01-16 09:17:00,
2013-01-16 03:22:00,15.1,9.0,30.07,SSW,199,0.0,3.6,76,0.00,,---,0.00,VWS V14.01,2013-01-16 09:22:00,
2013-01-16 03:27:00,15.2,9.1,30.06,SSW,208,1.8,3.6,76,0.00,,---,0.00,VWS V14.01,2013-01-16 09:27:00,
2013-01-16 03:32:00,15.3,8.9,30.06,SSW,194,0.0,1.8,75,0.00,,---,0.00,VWS V14.01,2013-01-16 09:32:00,
2013-01-16 03:37:00,15.3,8.9,30.06,SE,135,0.0,1.8,75,0.00,,---,0.00,VWS V14.01,2013-01-16 09:37:00,
2013-01-16 03:42:00,15.3,8.6,30.05,SSW,207,0.0,1.8,74,0.00,,---,0.00,VWS V14.01,2013-01-16 09:42:00,
2013-01-16 03:47:00,15.2,8.5,30.05,SSE,161,0.0,0.0,74,0.00,,---,0.00,VWS V14.01,2013-01-16 09:47:00,
2013-01-16 03:52:00,15.0,8.3,30.05,SSE,162,0.0,0.0,74,0.00,,---,0.00,VWS V14.01,2013-01-16 09:52:00,
2013-01-16 03:57:00,15.0,8.6,30.05,South,181,1.8,5.4,75,0.00,,---,0.00,VWS V14.01,2013-01-16 09:57:00,
2013-01-16 04:02:00,15.1,8.7,30.04,WSW,240,0.0,1.8,75,0.00,,---,0.00,VWS V14.01,2013-01-16 10:02:00,
2013-01-16 04:07:00,15.2,8.8,30.03,SSW,209,0.0,1.8,75,0.00,,---,0.00,VWS V14.01,2013-01-16 10:07:00,
2013-01-16 04:12:00,15.2,8.8,30.03,South,186,1.8,1.8,75,0.00,,---,0.00,VWS V14.01,2013-01-16 10:12:00,
2013-01-16 04:17:00,15.3,8.9,30.04,WSW,248,0.0,3.6,75,0.00,,---,0.00,VWS V14.01,2013-01-16 10:17:00,
2013-01-16 04:22:00,15.3,8.9,30.03,West,273,3.6,3.6,75,0.00,,---,0.00,VWS V14.01,2013-01-16 10:22:00,
2013-01-16 04:27:00,15.2,8.5,30.03,South,181,1.8,3.6,74,0.00,,---,0.00,VWS V14.01,2013-01-16 10:27:00,
2013-01-16 04:32:00,14.8,8.4,30.03,West,271,0.0,1.8,75,0.00,,---,0.00,VWS V14.01,2013-01-16 10:32:00,
2013-01-16 04:37:00,14.5,8.1,30.02,West,260,0.0,1.8,75,0.00,,---,0.00,VWS V14.01,2013-01-16 10:37:00,
2013-01-16 04:42:00,14.2,8.1,30.02,West,260,0.0,0.0,76,0.00,,---,0.00,VWS V14.01,2013-01-16 10:42:00,
2013-01-16 04:47:00,13.9,7.8,30.02,South,173,0.0,0.0,76,0.00,,---,0.00,VWS V14.01,2013-01-16 10:47:00,
2013-01-16 04:52:00,13.6,7.5,30.02,South,173,0.0,0.0,76,0.00,,---,0.00,VWS V14.01,2013-01-16 10:52:00,
2013-01-16 04:57:00,13.4,7.6,30.02,South,177,0.0,1.8,77,0.00,,---,0.00,VWS V14.01,2013-01-16 10:57:00,
2013-01-16 05:02:00,13.3,7.5,30.02,South,177,0.0,0.0,77,0.00,,---,0.00,VWS V14.01,2013-01-16 11:02:00,
2013-01-16 05:07:00,13.4,7.6,30.02,SSW,200,0.0,0.0,77,0.00,,---,0.00,VWS V14.01,2013-01-16 11:07:00,
2013-01-16 05:12:00,13.6,7.8,30.01,SW,217,0.0,0.0,77,0.00,,---,0.00,VWS V14.01,2013-01-16 11:12:00,
2013-01-16 05:17:00,13.7,7.9,30.01,SW,217,1.8,3.6,77,0.00,,---,0.00,VWS V14.01,2013-01-16 11:17:00,
2013-01-16 05:22:00,14.0,8.2,30.01,SSW,195,1.8,3.6,77,0.00,,---,0.00,VWS V14.01,2013-01-16 11:22:00,
2013-01-16 05:27:00,14.3,8.2,30.01,South,183,0.0,1.8,76,0.00,,---,0.00,VWS V14.01,2013-01-16 11:27:00,
2013-01-16 05:32:00,14.5,8.4,30.01,SW,229,0.0,1.8,76,0.00,,---,0.00,VWS V14.01,2013-01-16 11:32:00,
2013-01-16 05:37:00,14.7,8.6,30.01,WSW,250,1.8,5.4,76,0.00,,---,0.00,VWS V14.01,2013-01-16 11:37:00,
2013-01-16 05:42:00,15.0,8.6,30.00,SSE,164,3.6,3.6,75,0.00,,---,0.00,VWS V14.01,2013-01-16 11:42:00,
2013-01-16 05:47:00,15.1,8.7,30.00,SSW,197,0.0,0.0,75,0.00,,---,0.00,VWS V14.01,2013-01-16 11:47:00,
2013-01-16 05:52:00,15.2,8.8,30.00,SW,226,3.6,7.2,75,0.00,,---,0.00,VWS V14.01,2013-01-16 11:52:00,
2013-01-16 05:57:00,15.3,8.9,29.99,SSW,194,7.2,7.2,75,0.00,,---,0.00,VWS V14.01,2013-01-16 11:57:00,
2013-01-16 06:02:00,15.5,8.8,29.99,SW,233,1.8,3.6,74,0.00,,---,0.00,VWS V14.01,2013-01-16 12:02:00,
2013-01-16 06:06:00,15.6,8.9,29.99,West,276,1.8,7.2,74,0.00,,---,0.00,VWS V14.01,2013-01-16 12:06:00,
2013-01-16 06:11:00,15.7,9.0,29.99,SSW,210,0.0,5.4,74,0.00,,---,0.00,VWS V14.01,2013-01-16 12:11:00,
2013-01-16 06:16:00,15.8,9.1,29.98,WSW,238,1.8,7.2,74,0.00,,---,0.00,VWS V14.01,2013-01-16 12:16:00,
2013-01-16 06:22:00,15.9,8.9,29.98,West,276,1.8,7.2,73,0.00,,---,0.00,VWS V14.01,2013-01-16 12:22:00,
2013-01-16 06:27:00,16.2,9.2,29.97,WSW,238,0.0,9.0,73,0.00,,---,0.00,VWS V14.01,2013-01-16 12:27:00,
2013-01-16 06:32:00,16.5,9.2,29.97,ESE,118,7.2,7.2,73,0.00,,---,0.00,VWS V14.01,2013-01-16 12:32:00,
2013-01-16 06:37:00,16.7,9.4,29.97,SW,224,3.6,7.2,73,0.00,,---,0.00,VWS V14.01,2013-01-16 12:37:00,
2013-01-16 06:42:00,16.9,9.3,29.97,SW,217,12.6,12.6,72,0.00,,---,0.00,VWS V14.01,2013-01-16 12:42:00,
2013-01-16 06:47:00,17.0,9.4,29.96,SW,217,1.8,12.6,72,0.00,,---,0.00,VWS V14.01,2013-01-16 12:47:00,
2013-01-16 06:52:00,16.9,9.3,29.96,South,187,10.8,14.4,72,0.00,,---,0.00,VWS V14.01,2013-01-16 12:52:00,
2013-01-16 06:57:00,16.8,9.2,29.97,West,260,1.8,5.4,72,0.00,,---,0.00,VWS V14.01,2013-01-16 12:57:00,
2013-01-16 07:02:00,16.7,9.1,29.97,SW,214,7.2,7.2,72,0.00,,---,0.00,VWS V14.01,2013-01-16 13:02:00,
2013-01-16 07:07:00,16.7,9.1,29.97,SSW,211,5.4,7.2,72,0.00,,---,0.00,VWS V14.01,2013-01-16 13:07:00,
2013-01-16 07:12:00,16.7,9.4,29.97,South,191,3.6,14.4,73,0.00,,---,0.00,VWS V14.01,2013-01-16 13:12:00,
2013-01-16 07:16:00,16.8,9.5,29.97,SSW,194,3.6,9.0,73,0.00,,---,0.00,VWS V14.01,2013-01-16 13:16:00,
2013-01-16 07:21:00,16.8,9.5,29.97,WSW,243,3.6,5.4,73,0.00,,---,0.00,VWS V14.01,2013-01-16 13:21:00,
2013-01-16 07:26:00,16.8,9.5,29.97,SSW,207,1.8,9.0,73,0.00,,---,0.00,VWS V14.01,2013-01-16 13:26:00,
2013-01-16 07:31:00,16.8,9.5,29.97,SW,217,1.8,3.6,73,0.00,,---,0.00,VWS V14.01,2013-01-16 13:31:00,
2013-01-16 07:36:00,16.8,9.5,29.97,SSW,198,1.8,7.2,73,0.00,,---,0.00,VWS V14.01,2013-01-16 13:36:00,
2013-01-16 07:41:00,17.0,9.7,29.97,SSE,166,3.6,5.4,73,0.00,,---,0.00,VWS V14.01,2013-01-16 13:41:00,
2013-01-16 07:46:00,17.1,9.8,29.97,SSE,158,3.6,5.4,73,0.00,,---,0.00,VWS V14.01,2013-01-16 13:46:00,
2013-01-16 07:51:00,17.2,9.9,29.97,SSW,198,0.0,5.4,73,0.00,,---,0.00,VWS V14.01,2013-01-16 13:51:00,
2013-01-16 07:56:00,17.4,10.1,29.97,South,188,0.0,3.6,73,0.00,,---,0.00,VWS V14.01,2013-01-16 13:56:00,
2013-01-16 08:01:00,17.5,10.2,29.98,West,263,1.8,9.0,73,0.00,,---,0.00,VWS V14.01,2013-01-16 14:01:00,
2013-01-16 08:06:00,17.6,10.3,29.97,WSW,250,3.6,3.6,73,0.00,,---,0.00,VWS V14.01,2013-01-16 14:06:00,
2013-01-16 08:11:00,17.8,10.5,29.97,South,176,5.4,5.4,73,0.00,,---,0.00,VWS V14.01,2013-01-16 14:11:00,
2013-01-16 08:16:00,18.1,10.5,29.97,WNW,285,1.8,3.6,72,0.00,,---,0.00,VWS V14.01,2013-01-16 14:16:00,
2013-01-16 08:21:00,18.4,10.8,29.97,WSW,248,5.4,7.2,72,0.00,,---,0.00,VWS V14.01,2013-01-16 14:21:00,
2013-01-16 08:26:00,18.9,11.3,29.97,SW,235,1.8,3.6,72,0.00,,---,0.00,VWS V14.01,2013-01-16 14:26:00,
2013-01-16 08:31:00,19.2,11.6,29.97,WSW,249,1.8,10.8,72,0.00,,---,0.00,VWS V14.01,2013-01-16 14:31:00,
2013-01-16 08:36:00,19.7,11.7,29.97,SE,146,0.0,3.6,71,0.00,,---,0.00,VWS V14.01,2013-01-16 14:36:00,
2013-01-16 08:41:00,20.2,12.2,29.97,South,183,0.0,5.4,71,0.00,,---,0.00,VWS V14.01,2013-01-16 14:41:00,
2013-01-16 08:46:00,20.5,12.2,29.96,SW,219,3.6,3.6,70,0.00,,---,0.00,VWS V14.01,2013-01-16 14:46:00,
2013-01-16 08:51:00,21.0,12.7,29.96,SSW,209,5.4,10.8,70,0.00,,---,0.00,VWS V14.01,2013-01-16 14:51:00,
2013-01-16 08:56:00,21.4,12.8,29.96,SSW,207,5.4,9.0,69,0.00,,---,0.00,VWS V14.01,2013-01-16 14:56:00,
2013-01-16 09:01:00,21.8,13.1,29.95,South,179,3.6,7.2,69,0.00,,---,0.00,VWS V14.01,2013-01-16 15:01:00,
2013-01-16 09:06:00,22.2,13.2,29.95,SW,229,5.4,9.0,68,0.00,,---,0.00,VWS V14.01,2013-01-16 15:06:00,
2013-01-16 09:11:00,22.6,13.6,29.94,SW,214,5.4,19.8,68,0.00,,---,0.00,VWS V14.01,2013-01-16 15:11:00,
2013-01-16 09:16:00,23.1,13.8,29.94,SW,224,0.0,10.8,67,0.00,,---,0.00,VWS V14.01,2013-01-16 15:16:00,
2013-01-16 09:21:00,23.5,14.2,29.93,WNW,285,3.6,7.2,67,0.00,,---,0.00,VWS V14.01,2013-01-16 15:21:00,
2013-01-16 09:26:00,24.0,14.6,29.93,West,278,3.6,10.8,67,0.00,,---,0.00,VWS V14.01,2013-01-16 15:26:00,
2013-01-16 09:31:00,24.4,15.0,29.93,South,190,10.8,16.2,67,0.00,,---,0.00,VWS V14.01,2013-01-16 15:31:00,
2013-01-16 09:36:00,24.8,15.1,29.93,SW,218,5.4,5.4,66,0.00,,---,0.00,VWS V14.01,2013-01-16 15:36:00,
2013-01-16 09:41:00,25.3,15.6,29.93,SSW,198,5.4,7.2,66,0.00,,---,0.00,VWS V14.01,2013-01-16 15:41:00,
2013-01-16 09:46:00,25.8,16.0,29.93,WNW,297,3.6,12.6,66,0.00,,---,0.00,VWS V14.01,2013-01-16 15:46:00,
2013-01-16 09:51:00,26.3,16.5,29.93,SW,215,1.8,3.6,66,0.00,,---,0.00,VWS V14.01,2013-01-16 15:51:00,
2013-01-16 09:56:00,26.8,16.7,29.93,West,271,3.6,7.2,65,0.00,,---,0.00,VWS V14.01,2013-01-16 15:56:00,
2013-01-16 10:01:00,27.2,16.7,29.92,SSW,204,1.8,7.2,64,0.00,,---,0.00,VWS V14.01,2013-01-16 16:01:00,
2013-01-16 10:06:00,27.7,17.2,29.92,South,189,3.6,3.6,64,0.00,,---,0.00,VWS V14.01,2013-01-16 16:06:00,
2013-01-16 10:11:00,28.2,17.7,29.92,West,278,3.6,7.2,64,0.00,,---,0.00,VWS V14.01,2013-01-16 16:11:00,
2013-01-16 10:16:00,28.6,17.7,29.92,SSE,165,3.6,7.2,63,0.00,,---,0.00,VWS V14.01,2013-01-16 16:16:00,
2013-01-16 10:21:00,29.0,18.1,29.92,SW,224,12.6,14.4,63,0.00,,---,0.00,VWS V14.01,2013-01-16 16:21:00,
2013-01-16 10:26:00,29.4,18.1,29.92,WSW,253,5.4,10.8,62,0.00,,---,0.00,VWS V14.01,2013-01-16 16:26:00,
2013-01-16 10:31:00,29.8,18.5,29.91,WSW,255,5.4,5.4,62,0.00,,---,0.00,VWS V14.01,2013-01-16 16:31:00,
2013-01-16 10:36:00,30.2,18.5,29.91,SW,215,3.6,5.4,61,0.00,,---,0.00,VWS V14.01,2013-01-16 16:36:00,
2013-01-16 10:41:00,30.6,18.5,29.91,WSW,243,7.2,12.6,60,0.00,,---,0.00,VWS V14.01,2013-01-16 16:41:00,
2013-01-16 10:46:00,30.8,18.7,29.90,South,172,3.6,16.2,60,0.00,,---,0.00,VWS V14.01,2013-01-16 16:46:00,
2013-01-16 10:51:00,30.9,18.5,29.90,SW,214,0.0,10.8,60,0.00,,---,0.00,VWS V14.01,2013-01-16 16:51:00,
2013-01-16 10:56:00,31.2,18.8,29.90,SW,217,5.4,12.6,60,0.00,,---,0.00,VWS V14.01,2013-01-16 16:56:00,
2013-01-16 11:01:00,31.3,18.9,29.90,SW,233,9.0,12.6,60,0.00,,---,0.00,VWS V14.01,2013-01-16 17:01:00,
2013-01-16 11:06:00,31.7,18.9,29.89,SSW,193,1.8,7.2,59,0.00,,---,0.00,VWS V14.01,2013-01-16 17:06:00,
2013-01-16 11:11:00,32.2,19.3,29.89,WSW,239,5.4,12.6,59,0.00,,---,0.00,VWS V14.01,2013-01-16 17:11:00,
2013-01-16 11:16:00,32.5,19.2,29.89,West,259,3.6,5.4,58,0.00,,---,0.00,VWS V14.01,2013-01-16 17:16:00,
2013-01-16 11:21:00,32.7,19.4,29.89,SSW,212,1.8,12.6,58,0.00,,---,0.00,VWS V14.01,2013-01-16 17:21:00,
2013-01-16 11:26:00,32.7,19.4,29.89,SW,232,3.6,16.2,58,0.00,,---,0.00,VWS V14.01,2013-01-16 17:26:00,
2013-01-16 11:31:00,32.6,19.3,29.88,SSW,197,1.8,14.4,58,0.00,,---,0.00,VWS V14.01,2013-01-16 17:31:00,
2013-01-16 11:36:00,32.6,19.3,29.88,West,276,1.8,10.8,58,0.00,,---,0.00,VWS V14.01,2013-01-16 17:36:00,
2013-01-16 11:41:00,32.5,19.6,29.88,WNW,285,7.2,7.2,59,0.00,,---,0.00,VWS V14.01,2013-01-16 17:41:00,
2013-01-16 11:46:00,32.4,19.5,29.87,SSW,198,10.8,12.6,59,0.00,,---,0.00,VWS V14.01,2013-01-16 17:46:00,
2013-01-16 11:51:00,32.2,19.3,29.87,SE,134,1.8,10.8,59,0.00,,---,0.00,VWS V14.01,2013-01-16 17:51:00,
2013-01-16 11:56:00,32.5,20.0,29.87,West,264,3.6,9.0,60,0.00,,---,0.00,VWS V14.01,2013-01-16 17:56:00,
2013-01-16 12:01:00,33.0,20.5,29.86,WSW,240,7.2,10.8,60,0.00,,---,0.00,VWS V14.01,2013-01-16 18:01:00,
2013-01-16 12:06:00,33.4,20.8,29.86,WSW,240,5.4,7.2,60,0.00,,---,0.00,VWS V14.01,2013-01-16 18:06:00,
2013-01-16 12:11:00,33.7,20.8,29.85,West,259,1.8,7.2,59,0.00,,---,0.00,VWS V14.01,2013-01-16 18:11:00,
2013-01-16 12:16:00,34.1,20.8,29.84,SSW,201,9.0,14.4,58,0.00,,---,0.00,VWS V14.01,2013-01-16 18:16:00,
2013-01-16 12:21:00,34.4,21.0,29.84,NW,323,9.0,12.6,58,0.00,,---,0.00,VWS V14.01,2013-01-16 18:21:00,
2013-01-16 12:26:00,34.5,21.1,29.85,West,267,3.6,7.2,58,0.00,,---,0.00,VWS V14.01,2013-01-16 18:26:00,
2013-01-16 12:31:00,34.7,20.9,29.84,NW,309,3.6,12.6,57,0.00,,---,0.00,VWS V14.01,2013-01-16 18:31:00,
2013-01-16 12:36:00,34.9,21.1,29.85,SW,218,9.0,10.8,57,0.00,,---,0.00,VWS V14.01,2013-01-16 18:36:00,
2013-01-16 12:41:00,35.0,21.6,29.85,West,264,1.8,9.0,58,0.00,,---,0.00,VWS V14.01,2013-01-16 18:41:00,
2013-01-16 12:46:00,34.9,21.9,29.86,South,184,7.2,10.8,59,0.00,,---,0.00,VWS V14.01,2013-01-16 18:46:00,
2013-01-16 12:51:00,34.7,21.7,29.85,WSW,254,3.6,9.0,59,0.00,,---,0.00,VWS V14.01,2013-01-16 18:51:00,
2013-01-16 12:56:00,34.6,22.3,29.86,West,266,3.6,9.0,60,0.00,,---,0.00,VWS V14.01,2013-01-16 18:56:00,
2013-01-16 13:01:00,34.5,22.2,29.86,WSW,243,5.4,5.4,60,0.00,,---,0.00,VWS V14.01,2013-01-16 19:01:00,
2013-01-16 13:06:00,34.4,22.1,29.86,WSW,256,7.2,7.2,60,0.00,,---,0.00,VWS V14.01,2013-01-16 19:06:00,
2013-01-16 13:11:00,34.4,22.5,29.85,WSW,252,3.6,9.0,61,0.00,,---,0.00,VWS V14.01,2013-01-16 19:11:00,
2013-01-16 13:16:00,34.4,22.9,29.85,WSW,258,3.6,12.6,62,0.00,,---,0.00,VWS V14.01,2013-01-16 19:16:00,
2013-01-16 13:21:00,34.4,22.9,29.85,West,261,5.4,9.0,62,0.00,,---,0.00,VWS V14.01,2013-01-16 19:21:00,
2013-01-16 13:26:00,34.4,22.9,29.85,SW,221,1.8,7.2,62,0.00,,---,0.00,VWS V14.01,2013-01-16 19:26:00,
2013-01-16 13:31:00,34.5,23.3,29.86,WSW,238,1.8,7.2,63,0.00,,---,0.00,VWS V14.01,2013-01-16 19:31:00,
2013-01-16 13:36:00,34.6,23.4,29.86,WSW,237,5.4,5.4,63,0.00,,---,0.00,VWS V14.01,2013-01-16 19:36:00,
2013-01-16 13:41:00,34.6,23.4,29.86,SSW,207,1.8,3.6,63,0.00,,---,0.00,VWS V14.01,2013-01-16 19:41:00,
2013-01-16 13:46:00,34.6,23.0,29.86,SSW,205,3.6,9.0,62,0.00,,---,0.00,VWS V14.01,2013-01-16 19:46:00,
2013-01-16 13:51:00,34.7,23.5,29.86,SW,236,1.8,3.6,63,0.00,,---,0.00,VWS V14.01,2013-01-16 19:51:00,
2013-01-16 13:56:00,34.7,23.5,29.86,WSW,247,3.6,3.6,63,0.00,,---,0.00,VWS V14.01,2013-01-16 19:56:00,
2013-01-16 14:01:00,34.8,23.9,29.86,WNW,287,1.8,5.4,64,0.00,,---,0.00,VWS V14.01,2013-01-16 20:01:00,
2013-01-16 14:06:00,34.9,24.0,29.87,WSW,257,3.6,5.4,64,0.00,,---,0.00,VWS V14.01,2013-01-16 20:06:00,
2013-01-16 14:11:00,34.9,24.0,29.86,WSW,256,1.8,3.6,64,0.00,,---,0.00,VWS V14.01,2013-01-16 20:11:00,
2013-01-16 14:16:00,35.1,24.2,29.87,WNW,293,3.6,5.4,64,0.00,,---,0.00,VWS V14.01,2013-01-16 20:16:00,
2013-01-16 14:21:00,35.1,24.2,29.87,WSW,246,5.4,5.4,64,0.00,,---,0.00,VWS V14.01,2013-01-16 20:21:00,
2013-01-16 14:26:00,35.2,24.0,29.87,SW,224,1.8,3.6,63,0.00,,---,0.00,VWS V14.01,2013-01-16 20:26:00,
2013-01-16 14:31:00,35.3,24.4,29.87,SW,217,1.8,3.6,64,0.00,,---,0.00,VWS V14.01,2013-01-16 20:31:00,
2013-01-16 14:36:00,35.3,24.4,29.87,SW,231,1.8,1.8,64,0.00,,---,0.00,VWS V14.01,2013-01-16 20:36:00,
2013-01-16 14:41:00,35.3,24.1,29.87,SW,228,1.8,3.6,63,0.00,,---,0.00,VWS V14.01,2013-01-16 20:41:00,
2013-01-16 14:46:00,35.4,24.2,29.87,WSW,252,3.6,5.4,63,0.00,,---,0.00,VWS V14.01,2013-01-16 20:46:00,
2013-01-16 14:51:00,35.4,24.5,29.87,WSW,248,1.8,3.6,64,0.00,,---,0.00,VWS V14.01,2013-01-16 20:51:00,
2013-01-16 14:56:00,35.4,24.9,29.87,West,259,3.6,7.2,65,0.00,,---,0.00,VWS V14.01,2013-01-16 20:56:00,
2013-01-16 15:01:00,35.5,24.6,29.88,SW,217,1.8,3.6,64,0.00,,---,0.00,VWS V14.01,2013-01-16 21:01:00,
2013-01-16 15:06:00,35.5,25.0,29.88,WSW,245,3.6,3.6,65,0.00,,---,0.00,VWS V14.01,2013-01-16 21:06:00,
2013-01-16 15:11:00,35.5,25.3,29.89,WSW,256,1.8,5.4,66,0.00,,---,0.00,VWS V14.01,2013-01-16 21:11:00,
2013-01-16 15:16:00,35.5,25.3,29.89,SW,219,0.0,0.0,66,0.00,,---,0.00,VWS V14.01,2013-01-16 21:16:00,
2013-01-16 15:21:00,35.5,25.3,29.89,West,267,3.6,3.6,66,0.00,,---,0.00,VWS V14.01,2013-01-16 21:21:00,
2013-01-16 15:26:00,35.6,25.4,29.89,West,264,3.6,3.6,66,0.00,,---,0.00,VWS V14.01,2013-01-16 21:26:00,
2013-01-16 15:31:00,35.5,25.6,29.89,WSW,249,1.8,1.8,67,0.02,,---,0.02,VWS V14.01,2013-01-16 21:31:00,
2013-01-16 15:36:00,35.5,25.6,29.89,West,260,5.4,7.2,67,0.02,,---,0.02,VWS V14.01,2013-01-16 21:36:00,
2013-01-16 15:41:00,35.6,26.1,29.90,South,191,1.8,3.6,68,0.02,,---,0.02,VWS V14.01,2013-01-16 21:41:00,
2013-01-16 15:46:00,35.7,26.1,29.91,West,276,1.8,3.6,68,0.02,,---,0.02,VWS V14.01,2013-01-16 21:46:00,
2013-01-16 15:51:00,35.7,26.1,29.91,WSW,257,1.8,1.8,68,0.02,,---,0.02,VWS V14.01,2013-01-16 21:51:00,
2013-01-16 15:56:00,35.7,26.1,29.91,WNW,287,1.8,1.8,68,0.02,,---,0.02,VWS V14.01,2013-01-16 21:56:00,
2013-01-16 16:01:00,35.6,26.4,29.92,WNW,288,1.8,1.8,69,0.02,,---,0.02,VWS V14.01,2013-01-16 22:01:00,
2013-01-16 16:06:00,35.6,26.4,29.92,WSW,258,1.8,5.4,69,0.02,,---,0.02,VWS V14.01,2013-01-16 22:06:00,
2013-01-16 16:11:00,35.6,26.4,29.92,West,276,1.8,3.6,69,0.02,,---,0.02,VWS V14.01,2013-01-16 22:11:00,
2013-01-16 16:16:00,35.6,26.4,29.93,West,270,1.8,3.6,69,0.02,,---,0.02,VWS V14.01,2013-01-16 22:16:00,
2013-01-16 16:21:00,35.7,26.5,29.93,West,267,3.6,5.4,69,0.02,,---,0.02,VWS V14.01,2013-01-16 22:21:00,
2013-01-16 16:26:00,35.6,26.7,29.93,WSW,246,3.6,3.6,70,0.02,,---,0.02,VWS V14.01,2013-01-16 22:26:00,
2013-01-16 16:31:00,35.6,26.7,29.93,WSW,256,0.0,1.8,70,0.00,,---,0.02,VWS V14.01,2013-01-16 22:31:00,
2013-01-16 16:36:00,35.5,26.6,29.93,West,267,3.6,3.6,70,0.00,,---,0.02,VWS V14.01,2013-01-16 22:36:00,
2013-01-16 16:41:00,35.5,26.6,29.93,West,269,1.8,1.8,70,0.00,,---,0.02,VWS V14.01,2013-01-16 22:41:00,
2013-01-16 16:46:00,35.4,26.8,29.93,West,278,1.8,1.8,71,0.00,,---,0.02,VWS V14.01,2013-01-16 22:46:00,
2013-01-16 16:51:00,35.2,26.6,29.93,WSW,252,1.8,3.6,71,0.00,,---,0.02,VWS V14.01,2013-01-16 22:51:00,
2013-01-16 16:56:00,35.0,26.8,29.93,SW,225,0.0,1.8,72,0.00,,---,0.02,VWS V14.01,2013-01-16 22:56:00,
2013-01-16 17:01:00,34.7,26.5,29.93,WSW,245,1.8,1.8,72,0.00,,---,0.02,VWS V14.01,2013-01-16 23:01:00,
2013-01-16 17:06:00,34.5,26.6,29.94,WSW,248,0.0,0.0,73,0.00,,---,0.02,VWS V14.01,2013-01-16 23:06:00,
2013-01-16 17:11:00,34.2,26.3,29.94,WSW,248,0.0,0.0,73,0.00,,---,0.02,VWS V14.01,2013-01-16 23:11:00,
2013-01-16 17:16:00,33.9,26.3,29.94,WSW,243,0.0,1.8,73,0.00,,---,0.02,VWS V14.01,2013-01-16 23:16:00,
2013-01-16 17:21:00,33.7,26.1,29.94,WSW,250,0.0,0.0,73,0.00,,---,0.02,VWS V14.01,2013-01-16 23:21:00,
2013-01-16 17:26:00,33.5,26.2,29.94,WSW,245,0.0,0.0,74,0.00,,---,0.02,VWS V14.01,2013-01-16 23:26:00,
2013-01-16 17:31:00,33.4,26.1,29.94,WSW,246,0.0,0.0,74,0.00,,---,0.02,VWS V14.01,2013-01-16 23:31:00,
2013-01-16 17:36:00,33.2,26.0,29.94,WNW,293,0.0,0.0,74,0.00,,---,0.02,VWS V14.01,2013-01-16 23:36:00,
2013-01-16 17:41:00,33.1,25.9,29.95,WNW,287,0.0,0.0,74,0.00,,---,0.02,VWS V14.01,2013-01-16 23:41:00,
2013-01-16 17:46:00,32.8,25.9,29.95,WNW,285,0.0,0.0,75,0.00,,---,0.02,VWS V14.01,2013-01-16 23:46:00,
2013-01-16 17:51:00,32.9,26.3,29.95,West,269,0.0,0.0,76,0.00,,---,0.02,VWS V14.01,2013-01-16 23:51:00,
2013-01-16 17:56:00,33.0,26.4,29.95,West,269,0.0,0.0,76,0.00,,---,0.02,VWS V14.01,2013-01-16 23:56:00,
2013-01-16 18:01:00,33.0,26.4,29.95,West,269,0.0,0.0,76,0.00,,---,0.02,VWS V14.01,2013-01-17 00:01:00,
2013-01-16 18:06:00,33.1,26.5,29.95,WSW,255,1.8,1.8,76,0.00,,---,0.02,VWS V14.01,2013-01-17 00:06:00,
2013-01-16 18:11:00,33.2,26.5,29.95,WSW,258,1.8,1.8,76,0.00,,---,0.02,VWS V14.01,2013-01-17 00:11:00,
2013-01-16 18:16:00,33.2,26.5,29.95,SW,222,0.0,0.0,76,0.00,,---,0.02,VWS V14.01,2013-01-17 00:16:00,
2013-01-16 18:21:00,33.2,26.5,29.95,SW,222,0.0,0.0,76,0.00,,---,0.02,VWS V14.01,2013-01-17 00:21:00,
2013-01-16 18:26:00,33.2,26.5,29.96,SW,222,0.0,0.0,76,0.00,,---,0.02,VWS V14.01,2013-01-17 00:26:00,
2013-01-16 18:31:00,33.2,26.5,29.96,SW,222,0.0,0.0,76,0.00,,---,0.02,VWS V14.01,2013-01-17 00:31:00,
2013-01-16 18:36:00,33.2,26.5,29.96,SSW,204,0.0,0.0,76,0.00,,---,0.02,VWS V14.01,2013-01-17 00:36:00,
2013-01-16 18:41:00,33.4,26.7,29.97,SSW,204,0.0,0.0,76,0.00,,---,0.02,VWS V14.01,2013-01-17 00:41:00,
2013-01-16 18:46:00,33.6,26.9,29.97,SW,224,0.0,0.0,76,0.00,,---,0.02,VWS V14.01,2013-01-17 00:46:00,
2013-01-16 18:51:00,33.9,27.2,29.97,SW,229,0.0,1.8,76,0.00,,---,0.02,VWS V14.01,2013-01-17 00:51:00,
2013-01-16 18:56:00,34.0,27.3,29.98,WSW,237,1.8,3.6,76,0.00,,---,0.02,VWS V14.01,2013-01-17 00:56:00,
2013-01-16 19:01:00,34.2,27.5,29.98,West,269,0.0,1.8,76,0.00,,---,0.02,VWS V14.01,2013-01-17 01:01:00,
2013-01-16 19:06:00,34.3,27.6,29.98,WSW,256,0.0,0.0,76,0.00,,---,0.02,VWS V14.01,2013-01-17 01:06:00,
2013-01-16 19:11:00,34.4,27.7,29.98,WSW,254,1.8,1.8,76,0.00,,---,0.02,VWS V14.01,2013-01-17 01:11:00,
2013-01-16 19:16:00,34.6,27.6,29.98,West,264,1.8,3.6,75,0.00,,---,0.02,VWS V14.01,2013-01-17 01:16:00,
2013-01-16 19:21:00,34.8,27.8,29.99,WSW,257,0.0,1.8,75,0.00,,---,0.02,VWS V14.01,2013-01-17 01:21:00,
2013-01-16 19:26:00,34.8,27.8,29.99,WSW,252,5.4,5.4,75,0.00,,---,0.02,VWS V14.01,2013-01-17 01:26:00,
2013-01-16 19:31:00,34.8,27.8,29.99,WSW,246,0.0,1.8,75,0.00,,---,0.02,VWS V14.01,2013-01-17 01:31:00,
2013-01-16 19:36:00,34.8,27.8,29.99,SW,233,0.0,1.8,75,0.00,,---,0.02,VWS V14.01,2013-01-17 01:36:00,
2013-01-16 19:41:00,34.8,28.1,29.99,West,270,0.0,0.0,76,0.00,,---,0.02,VWS V14.01,2013-01-17 01:41:00,
2013-01-16 19:46:00,34.8,28.1,30.00,WSW,255,0.0,0.0,76,0.00,,---,0.02,VWS V14.01,2013-01-17 01:46:00,
2013-01-16 19:51:00,34.8,28.1,30.00,West,274,0.0,0.0,76,0.00,,---,0.02,VWS V14.01,2013-01-17 01:51:00,
2013-01-16 19:56:00,34.8,28.1,30.00,West,274,0.0,0.0,76,0.00,,---,0.02,VWS V14.01,2013-01-17 01:56:00,
2013-01-16 20:01:00,34.7,28.3,30.00,West,274,0.0,0.0,77,0.00,,---,0.02,VWS V14.01,2013-01-17 02:01:00,
2013-01-16 20:06:00,34.6,28.2,30.00,West,274,0.0,0.0,77,0.00,,---,0.02,VWS V14.01,2013-01-17 02:06:00,
2013-01-16 20:11:00,34.6,28.2,30.00,South,191,0.0,0.0,77,0.00,,---,0.02,VWS V14.01,2013-01-17 02:11:00,
2013-01-16 20:16:00,34.6,28.2,30.00,SSW,206,0.0,0.0,77,0.00,,---,0.02,VWS V14.01,2013-01-17 02:16:00,
2013-01-16 20:21:00,34.5,28.1,30.00,SSW,204,0.0,0.0,77,0.00,,---,0.02,VWS V14.01,2013-01-17 02:21:00,
2013-01-16 20:26:00,34.6,28.2,30.00,SSW,204,0.0,0.0,77,0.00,,---,0.02,VWS V14.01,2013-01-17 02:26:00,
2013-01-16 20:31:00,34.6,28.2,30.01,South,188,0.0,0.0,77,0.00,,---,0.02,VWS V14.01,2013-01-17 02:31:00,
2013-01-16 20:36:00,34.7,28.3,30.01,SW,221,0.0,0.0,77,0.00,,---,0.02,VWS V14.01,2013-01-17 02:36:00,
2013-01-16 20:41:00,34.7,28.3,30.01,SSE,160,0.0,0.0,77,0.00,,---,0.02,VWS V14.01,2013-01-17 02:41:00,
2013-01-16 20:46:00,34.7,28.3,30.01,SSW,197,0.0,0.0,77,0.00,,---,0.02,VWS V14.01,2013-01-17 02:46:00,
2013-01-16 20:51:00,34.9,28.5,30.01,WSW,258,0.0,0.0,77,0.00,,---,0.02,VWS V14.01,2013-01-17 02:51:00,
2013-01-16 20:56:00,35.0,28.6,30.01,West,259,0.0,1.8,77,0.00,,---,0.02,VWS V14.01,2013-01-17 02:56:00,
2013-01-16 21:01:00,35.1,28.7,30.01,WSW,243,0.0,0.0,77,0.00,,---,0.02,VWS V14.01,2013-01-17 03:01:00,
2013-01-16 21:06:00,35.0,28.6,30.01,NW,311,0.0,0.0,77,0.00,,---,0.02,VWS V14.01,2013-01-17 03:06:00,
2013-01-16 21:11:00,34.9,28.5,30.02,NW,311,0.0,0.0,77,0.00,,---,0.02,VWS V14.01,2013-01-17 03:11:00,
2013-01-16 21:16:00,34.9,28.5,30.02,NW,312,0.0,0.0,77,0.00,,---,0.02,VWS V14.01,2013-01-17 03:16:00,
2013-01-16 21:21:00,34.9,28.5,30.02,NW,311,0.0,0.0,77,0.00,,---,0.02,VWS V14.01,2013-01-17 03:21:00,
2013-01-16 21:26:00,34.9,28.5,30.02,NW,312,0.0,0.0,77,0.00,,---,0.02,VWS V14.01,2013-01-17 03:26:00,
2013-01-16 21:31:00,34.7,28.6,30.01,NW,312,0.0,0.0,78,0.00,,---,0.02,VWS V14.01,2013-01-17 03:31:00,
2013-01-16 21:36:00,34.5,28.4,30.02,NW,312,0.0,0.0,78,0.00,,---,0.02,VWS V14.01,2013-01-17 03:36:00,
2013-01-16 21:41:00,34.4,28.6,30.02,NW,312,0.0,0.0,79,0.00,,---,0.02,VWS V14.01,2013-01-17 03:41:00,
2013-01-16 21:46:00,34.4,28.6,30.02,NW,311,0.0,0.0,79,0.00,,---,0.02,VWS V14.01,2013-01-17 03:46:00,
2013-01-16 21:51:00,34.4,28.6,30.02,NW,312,0.0,0.0,79,0.00,,---,0.02,VWS V14.01,2013-01-17 03:51:00,
2013-01-16 21:56:00,34.4,28.3,30.02,NW,311,0.0,0.0,78,0.00,,---,0.02,VWS V14.01,2013-01-17 03:56:00,
2013-01-16 22:01:00,34.3,28.5,30.02,NW,312,0.0,0.0,79,0.00,,---,0.02,VWS V14.01,2013-01-17 04:01:00,
2013-01-16 22:06:00,34.3,28.5,30.03,NW,311,0.0,0.0,79,0.00,,---,0.02,VWS V14.01,2013-01-17 04:06:00,
2013-01-16 22:11:00,34.2,28.4,30.03,NW,314,0.0,0.0,79,0.00,,---,0.02,VWS V14.01,2013-01-17 04:11:00,
2013-01-16 22:16:00,34.1,28.3,30.03,NW,312,0.0,0.0,79,0.00,,---,0.02,VWS V14.01,2013-01-17 04:16:00,
2013-01-16 22:21:00,34.0,28.2,30.03,NW,312,0.0,0.0,79,0.00,,---,0.02,VWS V14.01,2013-01-17 04:21:00,
2013-01-16 22:26:00,33.9,28.4,30.03,NW,312,0.0,0.0,80,0.01,,---,0.03,VWS V14.01,2013-01-17 04:26:00,
2013-01-16 22:31:00,33.8,28.3,30.03,NW,312,0.0,0.0,80,0.01,,---,0.03,VWS V14.01,2013-01-17 04:31:00,
2013-01-16 22:36:00,33.7,28.2,30.02,NW,311,0.0,0.0,80,0.01,,---,0.03,VWS V14.01,2013-01-17 04:36:00,
2013-01-16 22:41:00,33.6,28.1,30.03,NW,309,0.0,0.0,80,0.01,,---,0.03,VWS V14.01,2013-01-17 04:41:00,
2013-01-16 22:46:00,33.5,28.0,30.03,NW,309,0.0,0.0,80,0.01,,---,0.03,VWS V14.01,2013-01-17 04:46:00,
2013-01-16 22:51:00,33.5,28.3,30.03,SSW,195,0.0,0.0,81,0.01,,---,0.03,VWS V14.01,2013-01-17 04:51:00,
2013-01-16 22:56:00,33.5,28.0,30.03,SSW,194,0.0,0.0,80,0.01,,---,0.03,VWS V14.01,2013-01-17 04:56:00,
2013-01-16 23:00:00,33.5,28.3,30.04,SSW,195,0.0,0.0,81,0.01,,---,0.03,VWS V14.01,2013-01-17 05:00:00,
2013-01-16 23:01:00,33.5,28.3,30.04,SSW,194,0.0,0.0,81,0.01,,---,0.03,VWS V14.01,2013-01-17 05:01:00,
2013-01-16 23:06:00,33.5,28.3,30.05,SSW,195,0.0,0.0,81,0.01,,---,0.03,VWS V14.01,2013-01-17 05:06:00,
2013-01-16 23:11:00,33.4,28.2,30.05,SSW,194,0.0,0.0,81,0.01,,---,0.03,VWS V14.01,2013-01-17 05:11:00,
2013-01-16 23:16:00,33.4,28.2,30.06,SSW,195,0.0,0.0,81,0.01,,---,0.03,VWS V14.01,2013-01-17 05:16:00,
2013-01-16 23:21:00,33.4,28.5,30.06,WNW,284,0.0,0.0,82,0.01,,---,0.03,VWS V14.01,2013-01-17 05:21:00,
2013-01-16 23:26:00,33.5,28.6,30.06,WNW,284,0.0,0.0,82,0.00,,---,0.03,VWS V14.01,2013-01-17 05:26:00,
2013-01-16 23:31:00,33.8,28.9,30.07,NW,311,0.0,0.0,82,0.00,,---,0.03,VWS V14.01,2013-01-17 05:31:00,
2013-01-16 23:36:00,33.9,28.7,30.07,NW,311,1.8,1.8,81,0.00,,---,0.03,VWS V14.01,2013-01-17 05:36:00,
2013-01-16 23:41:00,34.0,29.0,30.08,NW,312,1.8,1.8,82,0.00,,---,0.03,VWS V14.01,2013-01-17 05:41:00,
2013-01-16 23:46:00,34.0,29.0,30.08,NW,317,0.0,0.0,82,0.00,,---,0.03,VWS V14.01,2013-01-17 05:46:00,
2013-01-16 23:51:00,34.0,29.0,30.08,NW,322,3.6,3.6,82,0.00,,---,0.03,VWS V14.01,2013-01-17 05:51:00,
2013-01-16 23:56:00,34.2,29.5,30.08,NW,321,0.0,1.8,83,0.00,,---,0.03,VWS V14.01,2013-01-17 05:56:00,